IK0XIH-3 Weather Reports


time (UTC)temp
C
wind
direction
speed
KPH
gust
KPH
rain 1hr
cm
rain 24hr
cm
rain mn
cm
humidity
%
barometer
mb
20260507103319 23 213 3.2 8.0 0.00 0.03 0.00 60 1011.0
20260507102819 23 260 4.8 8.0 0.00 0.03 0.00 61 1011.0
20260507102319 23 259 3.2 8.0 0.00 0.03 0.00 62 1011.0
20260507101816 23 76 3.2 4.8 0.00 0.03 0.00 61 1011.0
20260507101319 23 341 0.0 8.0 0.00 0.03 0.00 61 1011.1
20260507100816 23 85 0.0 3.2 0.00 0.03 0.00 63 1011.1
20260507100316 22 304 3.2 4.8 0.00 0.03 0.00 61 1011.1
20260507095819 23 286 3.2 6.4 0.00 0.03 0.00 62 1011.2
20260507095316 22 266 4.8 8.0 0.00 0.03 0.00 63 1011.2
20260507094816 22 269 3.2 6.4 0.00 0.03 0.00 64 1011.2
20260507094316 22 292 0.0 8.0 0.00 0.03 0.00 65 1011.2
20260507093816 22 304 6.4 11.3 0.00 0.03 0.00 65 1011.2
20260507093316 22 264 4.8 6.4 0.00 0.03 0.00 65 1011.2
20260507092819 22 257 6.4 8.0 0.00 0.03 0.00 65 1011.1
20260507092319 22 63 1.6 3.2 0.00 0.03 0.00 63 1011.1
20260507091819 22 62 0.0 6.4 0.00 0.03 0.00 64 1011.1
20260507091319 22 12 0.0 4.8 0.00 0.03 0.00 65 1011.1
20260507090816 22 65 1.6 4.8 0.00 0.03 0.00 66 1011.1
20260507090316 22 67 0.0 6.4 0.00 0.03 0.00 65 1011.1
20260507085819 22 66 1.6 8.0 0.00 0.03 0.00 66 1011.3
20260507085319 21 53 0.0 6.4 0.00 0.03 0.00 66 1011.3
20260507084819 21 15 4.8 8.0 0.00 0.03 0.00 67 1011.3
20260507084316 21 9 1.6 4.8 0.00 0.03 0.00 66 1011.3
20260507083816 21 26 1.6 4.8 0.00 0.03 0.00 66 1011.3
20260507083316 21 26 4.8 6.4 0.00 0.03 0.00 65 1011.3
20260507082816 21 267 0.0 4.8 0.00 0.03 0.00 68 1011.3
20260507082319 21 44 0.0 3.2 0.00 0.03 0.00 66 1011.3
20260507081819 21 46 0.0 3.2 0.00 0.03 0.00 66 1011.3
20260507081318 20 40 3.2 6.4 0.00 0.03 0.00 67 1011.3
20260507080818 21 340 1.6 6.4 0.00 0.03 0.00 67 1011.3
20260507080318 21 68 3.2 4.8 0.00 0.03 0.00 69 1011.3
20260507075815 20 20 1.6 6.4 0.00 0.03 0.00 68 1011.3
20260507075315 20 34 3.2 8.0 0.00 0.03 0.00 68 1011.3
20260507074818 20 340 3.2 9.7 0.00 0.03 0.00 70 1011.3
20260507074315 20 38 3.2 8.0 0.00 0.03 0.00 69 1011.7
20260507073818 20 74 3.2 11.3 0.00 0.03 0.00 70 1011.7
20260507073318 20 53 4.8 11.3 0.00 0.03 0.00 70 1011.7
20260507072815 20 311 1.6 4.8 0.00 0.03 0.00 70 1011.9
20260507072318 20 46 3.2 4.8 0.00 0.03 0.00 71 1011.9
20260507071818 20 19 1.6 6.4 0.00 0.03 0.00 71 1011.9
20260507071318 20 323 0.0 4.8 0.00 0.03 0.00 72 1011.9
20260507070815 19 13 3.2 4.8 0.00 0.03 0.00 75 1011.9
20260507070315 18 294 1.6 6.4 0.00 0.03 0.00 75 1011.9
20260507065818 19 334 3.2 3.2 0.00 0.03 0.00 75 1011.8
20260507065318 18 336 0.0 3.2 0.00 0.03 0.00 78 1011.8
20260507064815 18 338 1.6 3.2 0.00 0.03 0.00 79 1011.8
20260507064315 18 339 0.0 0.0 0.00 0.03 0.00 81 1011.7
20260507063818 18 339 0.0 1.6 0.00 0.03 0.00 83 1011.7
20260507063316 17 339 0.0 0.0 0.00 0.05 0.00 84 1011.7
20260507062815 17 340 0.0 1.6 0.00 0.05 0.00 86 1011.5
20260507062318 17 340 0.0 1.6 0.00 0.05 0.00 88 1011.5
20260507061816 17 344 0.0 0.0 0.00 0.05 0.00 89 1011.5
20260507061315 17 344 0.0 0.0 0.00 0.05 0.00 90 1011.4
20260507060815 16 344 0.0 0.0 0.00 0.05 0.00 91 1011.4
20260507060315 16 344 0.0 0.0 0.00 0.05 0.00 91 1011.4
20260507055815 16 344 0.0 0.0 0.00 0.05 0.00 92 1011.5
20260507055315 16 344 0.0 0.0 0.00 0.08 0.00 92 1011.5
20260507054815 16 344 0.0 0.0 0.00 0.08 0.00 92 1011.5
20260507054318 16 344 0.0 0.0 0.00 0.08 0.00 92 1011.4
20260507053815 16 344 0.0 0.0 0.00 0.08 0.00 92 1011.4
20260507053315 15 345 0.0 0.0 0.00 0.10 0.00 92 1011.4
20260507052815 15 345 0.0 1.6 0.00 0.13 0.00 92 1011.4
20260507052315 15 344 0.0 0.0 0.00 0.13 0.00 92 1011.4
20260507051815 15 344 0.0 0.0 0.00 0.13 0.00 92 1011.4
20260507051315 15 344 0.0 0.0 0.00 0.13 0.00 93 1011.4
20260507050818 15 344 0.0 0.0 0.00 0.13 0.00 93 1011.4
20260507050315 15 344 0.0 0.0 0.00 0.13 0.00 93 1011.4
20260507045815 15 344 0.0 0.0 0.00 0.13 0.00 92 1011.3
20260507045315 15 344 0.0 0.0 0.00 0.13 0.00 93 1011.3
20260507044815 15 344 0.0 1.6 0.00 0.13 0.00 93 1011.3
20260507044315 15 344 0.0 0.0 0.00 0.13 0.00 93 1011.3
20260507043818 15 344 0.0 0.0 0.00 0.13 0.00 93 1011.3
20260507043315 15 344 0.0 1.6 0.00 0.13 0.00 93 1011.3
20260507042818 15 344 0.0 0.0 0.00 0.13 0.00 93 1011.4
20260507042318 15 344 0.0 3.2 0.00 0.13 0.00 93 1011.4
20260507041818 15 334 0.0 3.2 0.00 0.13 0.00 93 1011.4
20260507041315 15 327 0.0 0.0 0.00 0.13 0.00 93 1011.3
20260507040815 15 327 0.0 0.0 0.00 0.13 0.00 93 1011.3
20260507040318 15 327 0.0 0.0 0.00 0.13 0.00 93 1011.3
20260507035815 15 327 0.0 0.0 0.00 0.13 0.00 93 1011.1
20260507035318 15 327 0.0 0.0 0.00 0.13 0.00 93 1011.1
20260507034815 15 327 0.0 0.0 0.00 0.13 0.00 93 1011.1
20260507034315 15 327 0.0 0.0 0.00 0.13 0.00 93 1011.1
20260507033818 15 327 0.0 1.6 0.00 0.13 0.00 93 1011.1
20260507033315 15 327 0.0 1.6 0.00 0.13 0.00 93 1011.1
20260507032818 15 327 0.0 0.0 0.00 0.13 0.00 93 1011.1
20260507032315 15 327 0.0 1.6 0.00 0.13 0.00 93 1011.1
20260507031815 15 325 0.0 1.6 0.00 0.13 0.00 93 1011.1
20260507031318 15 325 0.0 0.0 0.00 0.13 0.00 93 1011.1
20260507030818 15 324 0.0 3.2 0.00 0.13 0.00 93 1011.1
20260507030315 15 317 0.0 0.0 0.00 0.13 0.00 93 1011.1
20260507025818 15 317 0.0 1.6 0.00 0.13 0.00 93 1011.2
20260507025315 15 317 0.0 0.0 0.00 0.13 0.00 93 1011.2
20260507024818 15 317 0.0 0.0 0.00 0.13 0.00 93 1011.2
20260507024315 15 317 0.0 0.0 0.00 0.13 0.00 93 1011.2
20260507023814 15 317 0.0 0.0 0.00 0.13 0.00 93 1011.2
20260507023315 15 317 0.0 0.0 0.00 0.13 0.00 93 1011.2
20260507022814 15 317 0.0 0.0 0.00 0.13 0.00 92 1011.1
20260507022314 15 317 0.0 0.0 0.00 0.13 0.00 92 1011.1
20260507021814 15 317 0.0 0.0 0.00 0.13 0.00 92 1011.1
20260507021314 15 317 0.0 0.0 0.00 0.13 0.00 92 1011.1
20260507020817 15 317 0.0 0.0 0.00 0.13 0.00 92 1011.1
20260507020317 15 317 0.0 0.0 0.00 0.13 0.00 92 1011.1
20260507015814 15 317 0.0 0.0 0.00 0.13 0.00 92 1011.2
20260507015314 15 317 0.0 0.0 0.00 0.13 0.00 92 1011.2
20260507014817 15 317 0.0 0.0 0.00 0.13 0.00 92 1011.2
20260507014314 15 317 0.0 0.0 0.00 0.13 0.00 92 1011.0
20260507013817 15 317 0.0 0.0 0.00 0.13 0.00 91 1011.0
20260507013314 15 317 0.0 3.2 0.00 0.13 0.00 91 1011.0
20260507012814 15 311 0.0 0.0 0.00 0.13 0.00 92 1011.1
20260507012317 15 311 0.0 0.0 0.00 0.13 0.00 92 1011.1
20260507011814 15 311 0.0 1.6 0.00 0.13 0.00 92 1011.1
20260507011314 15 311 0.0 0.0 0.00 0.13 0.00 92 1011.2
20260507010817 15 311 0.0 0.0 0.00 0.13 0.00 92 1011.2
20260507010314 15 311 0.0 3.2 0.00 0.13 0.00 92 1011.2
20260507005814 15 311 0.0 1.6 0.00 0.13 0.00 92 1011.2
20260507005314 15 311 0.0 0.0 0.00 0.13 0.00 92 1011.2
20260507004814 15 311 0.0 0.0 0.00 0.13 0.00 92 1011.2
20260507004317 15 311 0.0 0.0 0.00 0.13 0.00 91 1011.2
20260507003817 15 311 0.0 0.0 0.00 0.13 0.00 91 1011.2
20260507003314 15 311 0.0 0.0 0.00 0.13 0.00 91 1011.2
20260507002817 15 311 0.0 3.2 0.00 0.13 0.00 91 1011.1
20260507002317 15 315 0.0 3.2 0.00 0.13 0.00 91 1011.1
20260507001814 15 315 0.0 0.0 0.00 0.13 0.00 91 1011.1
20260507001317 15 315 0.0 0.0 0.00 0.13 0.00 91 1011.0
20260507000814 15 315 0.0 0.0 0.00 0.13 0.00 91 1011.0
20260507000317 15 315 0.0 0.0 0.00 0.13 0.00 91 1011.0
20260506235817 15 315 0.0 0.0 0.00 0.13 0.00 91 1011.3
20260506235317 15 315 0.0 0.0 0.00 0.13 0.00 90 1011.3
20260506234817 15 315 0.0 3.2 0.00 0.13 0.00 90 1011.3
20260506234317 15 315 0.0 4.8 0.00 0.13 0.00 90 1011.4
20260506233814 15 36 0.0 0.0 0.00 0.13 0.00 89 1011.4
20260506233314 15 36 0.0 8.0 0.00 0.13 0.00 89 1011.4
20260506232817 15 46 4.8 8.0 0.00 0.13 0.00 88 1011.4
20260506232317 15 25 0.0 3.2 0.00 0.13 0.00 88 1011.4
20260506231814 15 25 0.0 1.6 0.00 0.13 0.00 89 1011.4
20260506231317 15 27 0.0 4.8 0.00 0.13 0.00 89 1011.8
20260506230814 15 17 0.0 3.2 0.00 0.13 0.00 89 1011.8
20260506230314 15 19 1.6 3.2 0.00 0.13 0.00 89 1011.8
20260506225817 15 17 1.6 3.2 0.00 0.13 0.00 89 1011.9
20260506225314 15 13 0.0 4.8 0.00 0.13 0.00 89 1011.9
20260506224814 15 14 1.6 4.8 0.00 0.13 0.00 89 1011.9
20260506224314 16 19 3.2 4.8 0.00 0.13 0.00 89 1011.9
20260506223817 16 39 1.6 4.8 0.00 0.13 0.00 88 1011.9
20260506223314 16 61 4.8 4.8 0.00 0.10 0.00 88 1011.9
20260506222817 16 87 1.6 3.2 0.00 0.10 0.00 88 1011.9
20260506222314 16 91 0.0 1.6 0.00 0.10 0.00 88 1011.9
20260506221817 16 91 0.0 3.2 0.00 0.10 0.00 87 1011.9
20260506221317 16 92 0.0 4.8 0.00 0.10 0.00 87 1011.8
20260506220817 16 124 1.6 6.4 0.00 0.10 0.00 86 1011.8
20260506220314 16 115 6.4 8.0 0.00 0.10 0.00 86 1011.8
20260506215814 16 146 1.6 8.0 0.00 0.10 0.00 85 1012.0
20260506215317 16 153 4.8 8.0 0.00 0.10 0.00 85 1012.0
20260506214814 16 157 6.4 9.7 0.00 0.10 0.00 84 1012.0
20260506214314 16 158 9.7 12.9 0.00 0.10 0.00 84 1012.1
20260506213814 16 182 9.7 11.3 0.00 0.10 0.00 83 1012.1
20260506213317 16 152 8.0 12.9 0.00 0.10 0.00 82 1012.1
20260506212814 16 170 8.0 9.7 0.00 0.10 0.00 81 1011.8
20260506212314 16 175 6.4 8.0 0.00 0.10 0.00 81 1011.8
20260506211817 16 165 3.2 9.7 0.00 0.10 0.00 81 1011.8
20260506211317 17 173 4.8 9.7 0.00 0.10 0.00 80 1011.7
20260506210814 17 150 8.0 9.7 0.00 0.10 0.00 80 1011.7
20260506210317 16 153 4.8 8.0 0.00 0.10 0.00 81 1011.7
20260506205814 16 162 4.8 6.4 0.00 0.10 0.00 82 1011.7
20260506205314 16 131 0.0 3.2 0.00 0.10 0.00 83 1011.7
20260506204817 16 130 0.0 3.2 0.00 0.10 0.00 83 1011.7
20260506204317 16 132 3.2 8.0 0.00 0.10 0.00 84 1011.8
20260506203813 16 101 3.2 8.0 0.00 0.10 0.00 84 1011.8
20260506203314 16 88 1.6 9.7 0.00 0.10 0.00 85 1011.8
20260506202813 16 77 4.8 12.9 0.00 0.10 0.00 85 1011.9
20260506202316 16 105 4.8 9.7 0.00 0.10 0.00 86 1011.9
20260506201814 16 103 4.8 6.4 0.00 0.10 0.00 85 1011.9
20260506201317 16 109 4.8 6.4 0.00 0.10 0.00 85 1011.9
20260506200817 17 113 1.6 8.0 0.00 0.10 0.00 84 1011.9
20260506200313 17 112 4.8 8.0 0.00 0.08 0.00 83 1011.9
20260506195814 17 128 4.8 11.3 0.00 0.08 0.00 82 1012.1
20260506195314 17 141 3.2 6.4 0.00 0.08 0.00 80 1012.1
20260506194816 17 146 1.6 8.0 0.00 0.08 0.00 79 1012.1
20260506194313 17 132 3.2 6.4 0.00 0.08 0.00 78 1011.9
20260506193813 17 137 1.6 8.0 0.00 0.08 0.00 77 1011.9
20260506193317 18 121 4.8 9.7 0.00 0.08 0.00 77 1011.9
20260506192813 18 136 6.4 6.4 0.00 0.08 0.00 76 1011.9
20260506192313 18 134 4.8 9.7 0.00 0.08 0.00 76 1011.8
20260506191816 18 146 0.0 8.0 0.00 0.08 0.00 76 1011.8
20260506191313 18 138 3.2 6.4 0.00 0.08 0.00 76 1011.7
20260506190814 18 146 3.2 6.4 0.00 0.08 0.00 76 1011.7
20260506190318 18 138 3.2 11.3 0.00 0.08 0.00 76 1011.7
20260506185813 18 129 3.2 8.0 0.00 0.08 0.00 76 1011.4
20260506185316 18 129 3.2 4.8 0.00 0.08 0.00 77 1011.4
20260506184813 18 127 4.8 4.8 0.00 0.08 0.00 76 1011.4
20260506184316 18 152 3.2 4.8 0.00 0.08 0.00 76 1011.4
20260506183813 18 156 3.2 6.4 0.00 0.08 0.00 76 1011.4
20260506183313 18 148 3.2 6.4 0.00 0.08 0.00 76 1011.4
20260506182813 18 164 1.6 3.2 0.00 0.08 0.00 77 1011.3
20260506182313 18 164 0.0 3.2 0.00 0.08 0.00 77 1011.3
20260506181816 18 164 3.2 4.8 0.00 0.08 0.00 77 1011.3
20260506181316 18 164 3.2 4.8 0.00 0.08 0.00 77 1011.2
20260506180816 18 165 3.2 6.4 0.00 0.08 0.00 77 1011.2
20260506180313 18 162 3.2 4.8 0.00 0.08 0.00 76 1011.2
20260506175816 18 161 3.2 4.8 0.00 0.08 0.00 76 1011.1
20260506175313 18 182 1.6 4.8 0.00 0.08 0.00 75 1011.1
20260506174813 18 197 1.6 4.8 0.00 0.08 0.00 74 1011.1
20260506174316 19 186 3.2 8.0 0.00 0.08 0.00 74 1011.0
20260506173813 19 188 8.0 8.0 0.00 0.08 0.00 72 1011.0
20260506173313 19 194 4.8 4.8 0.00 0.08 0.00 72 1011.0
20260506172813 19 185 3.2 6.4 0.00 0.08 0.00 72 1010.9
20260506172316 19 186 1.6 4.8 0.00 0.08 0.00 72 1010.9
20260506171813 19 167 3.2 8.0 0.00 0.08 0.00 71 1010.9
20260506171316 19 198 1.6 9.7 0.00 0.08 0.00 72 1010.9
20260506170813 19 173 3.2 6.4 0.00 0.08 0.00 71 1010.9
20260506170316 20 159 3.2 6.4 0.00 0.08 0.00 70 1010.9
20260506165813 20 186 4.8 8.0 0.00 0.08 0.00 69 1011.1
20260506165313 20 199 0.0 6.4 0.00 0.08 0.00 69 1011.1
20260506164813 20 209 3.2 6.4 0.00 0.08 0.00 68 1011.1
20260506164316 20 190 6.4 8.0 0.00 0.08 0.00 68 1011.1
20260506163816 20 197 0.0 6.4 0.00 0.08 0.00 69 1011.1
20260506163316 20 194 3.2 3.2 0.00 0.08 0.00 70 1011.1
20260506162816 20 216 1.6 8.0 0.00 0.08 0.00 69 1011.1
20260506162313 20 205 1.6 9.7 0.00 0.08 0.00 68 1011.1
20260506161816 20 205 4.8 11.3 0.00 0.08 0.00 68 1011.1
20260506161313 20 196 3.2 11.3 0.00 0.08 0.00 67 1011.2
20260506160816 20 207 8.0 11.3 0.00 0.08 0.00 66 1011.2
20260506160316 20 193 8.0 9.7 0.00 0.08 0.00 65 1011.2
20260506155813 20 191 3.2 8.0 0.00 0.08 0.00 65 1011.3
20260506155313 20 186 4.8 11.3 0.00 0.08 0.00 65 1011.3
20260506154816 20 205 6.4 8.0 0.00 0.08 0.00 66 1011.3
20260506154313 20 168 6.4 9.7 0.00 0.08 0.00 65 1011.4
20260506153816 20 181 8.0 9.7 0.00 0.08 0.00 63 1011.4
20260506153315 20 194 6.4 11.3 0.00 0.08 0.00 64 1011.4
20260506152815 20 144 4.8 11.3 0.00 0.08 0.00 64 1011.3
20260506152316 20 209 8.0 11.3 0.00 0.08 0.00 66 1011.3
20260506151815 20 171 6.4 11.3 0.00 0.08 0.00 67 1011.3
20260506151312 20 182 9.7 12.9 0.00 0.08 0.00 68 1011.3
20260506150812 20 193 6.4 11.3 0.00 0.08 0.00 68 1011.3
20260506150318 20 164 8.0 11.3 0.00 0.08 0.00 67 1011.3
20260506145815 20 156 6.4 9.7 0.00 0.08 0.00 65 1011.3
20260506145312 20 209 8.0 11.3 0.00 0.08 0.00 65 1011.3
20260506144812 20 177 8.0 12.9 0.00 0.08 0.00 63 1011.3
20260506144312 21 163 6.4 9.7 0.00 0.08 0.00 64 1011.4
20260506143812 21 254 8.0 11.3 0.00 0.08 0.00 64 1011.4
20260506143315 21 167 3.2 12.9 0.00 0.08 0.00 65 1011.4
20260506142815 21 232 3.2 14.5 0.00 0.08 0.00 65 1011.6
20260506142312 21 182 3.2 14.5 0.00 0.08 0.00 64 1011.6
20260506141812 21 221 6.4 16.1 0.00 0.08 0.00 64 1011.6
20260506141312 21 221 8.0 14.5 0.00 0.08 0.00 66 1011.4
20260506140812 21 218 9.7 19.3 0.00 0.08 0.00 63 1011.4
20260506140312 21 229 11.3 17.7 0.00 0.08 0.00 62 1011.4
20260506135815 21 200 11.3 20.9 0.00 0.08 0.00 63 1011.5
20260506135315 21 250 12.9 17.7 0.00 0.08 0.00 63 1011.5
20260506134812 21 207 8.0 20.9 0.00 0.08 0.00 62 1011.5
20260506134315 21 248 12.9 20.9 0.00 0.08 0.00 61 1011.3
20260506133815 21 195 3.2 22.5 0.00 0.08 0.00 61 1011.3
20260506133312 21 252 11.3 19.3 0.00 0.08 0.00 58 1011.3
20260506132812 21 206 6.4 17.7 0.00 0.08 0.00 57 1011.3
20260506132312 21 253 16.1 22.5 0.00 0.08 0.00 58 1011.3
20260506131815 21 269 6.4 17.7 0.00 0.08 0.00 57 1011.3
20260506131312 22 220 11.3 22.5 0.00 0.08 0.00 55 1011.3
20260506130815 22 177 11.3 16.1 0.00 0.08 0.00 56 1011.3
20260506130315 22 208 9.7 17.7 0.00 0.08 0.00 55 1011.3
20260506125815 22 242 12.9 20.9 0.00 0.08 0.00 55 1011.2
20260506125312 22 239 14.5 16.1 0.00 0.08 0.00 56 1011.2
20260506124815 22 197 6.4 16.1 0.00 0.08 0.00 55 1011.2
20260506124315 22 208 6.4 17.7 0.00 0.08 0.00 55 1011.3
20260506123812 22 231 11.3 16.1 0.00 0.08 0.00 54 1011.3
20260506123315 22 197 12.9 16.1 0.00 0.08 0.00 53 1011.3
20260506122812 22 180 4.8 12.9 0.00 0.08 0.00 53 1011.2
20260506122315 22 234 3.2 11.3 0.00 0.08 0.00 53 1011.2
20260506121815 22 246 11.3 14.5 0.00 0.08 0.00 54 1011.2
20260506121312 22 259 4.8 19.3 0.00 0.08 0.00 55 1011.3
20260506120812 22 244 17.7 20.9 0.00 0.08 0.00 54 1011.3
20260506120315 22 216 9.7 17.7 0.00 0.08 0.00 53 1011.3
20260506115815 22 259 9.7 17.7 0.00 0.08 0.00 53 1011.4
20260506115312 22 180 11.3 12.9 0.00 0.08 0.00 55 1011.4
20260506114812 22 203 6.4 19.3 0.00 0.08 0.00 55 1011.4
20260506114315 22 226 4.8 16.1 0.00 0.08 0.00 56 1011.4
20260506113815 22 192 11.3 17.7 0.00 0.08 0.00 56 1011.4
20260506113312 22 172 3.2 16.1 0.00 0.08 0.00 56 1011.4
20260506112812 22 178 11.3 16.1 0.00 0.08 0.00 57 1011.4
20260506112315 22 185 16.1 20.9 0.00 0.08 0.00 58 1011.4
20260506111812 22 143 6.4 22.5 0.00 0.08 0.00 58 1011.4
20260506111312 22 163 6.4 19.3 0.00 0.08 0.00 58 1011.4
20260506110815 22 125 11.3 16.1 0.00 0.08 0.00 57 1011.4
20260506110312 22 153 16.1 14.5 0.00 0.08 0.00 60 1011.4
20260506105812 22 126 8.0 16.1 0.00 0.08 0.00 59 1011.6
20260506105312 22 141 11.3 19.3 0.00 0.08 0.00 59 1011.6
20260506104815 22 197 6.4 14.5 0.00 0.08 0.00 60 1011.6
20260506104315 22 162 11.3 16.1 0.00 0.08 0.00 61 1011.8
20260506103812 22 149 9.7 14.5 0.00 0.08 0.00 62 1011.8